This is the latest recevied weather packets stored in our database for station/object HB9FHL-13. If no packets are shown the sender has not sent any weather packets the latest 10 day(s).
| Time | Temp. | Humidity | Pressure | Rain* | Wind** | Luminosity | Snow |
|---|---|---|---|---|---|---|---|
| 1788001075 | 20° C | - | 1017.6 hPa | 0 mm | - | - | - |
| 1788000775 | 19.44° C | - | 1018.6 hPa | 0 mm | - | - | - |
| 1788000476 | 19.44° C | - | 1021.8 hPa | 0 mm | - | - | - |
| 1788000218 | 19.44° C | - | 1023.6 hPa | 0 mm | - | - | - |
| 1788000177 | 19.44° C | - | 1023.6 hPa | 0 mm | - | - | - |
| 1788000174 | 19.44° C | - | 1023.6 hPa | 0 mm | - | - | - |
| 1787999882 | 20° C | - | 1021.7 hPa | 0 mm | - | - | - |
| 1787999882 | 20° C | - | 1021.7 hPa | 0 mm | - | - | - |
| 1787999573 | 18.33° C | - | 1018.8 hPa | 0 mm | - | - | - |
| 1787999277 | 18.89° C | - | 1017.1 hPa | 0 mm | - | - | - |
| 1787999272 | 18.89° C | - | 1017.1 hPa | 0 mm | - | - | - |
| 1787998972 | 20° C | - | 1020.5 hPa | 0 mm | - | - | - |
| 1787998678 | 19.44° C | - | 1021.1 hPa | 0 mm | - | - | - |
| 1787998674 | 19.44° C | - | 1021.1 hPa | 0 mm | - | - | - |
| 1787998374 | 18.89° C | - | 1021.3 hPa | 0 mm | - | - | - |
| 1787998371 | 18.89° C | - | 1021.3 hPa | 0 mm | - | - | - |
| 1787998068 | 19.44° C | - | 1018.7 hPa | 0 mm | - | - | - |
| 1787997772 | 20° C | - | 1017.4 hPa | 0 mm | - | - | - |
| 1787997768 | 20° C | - | 1017.4 hPa | 0 mm | - | - | - |
| 1787997503 | 19.44° C | - | 1023.6 hPa | 0 mm | - | - | - |
| 1787997472 | 19.44° C | - | 1023.6 hPa | 0 mm | - | - | - |
| 1787997468 | 19.44° C | - | 1023.6 hPa | 0 mm | - | - | - |
| 1787997215 | 19.44° C | - | 1019.5 hPa | 0 mm | - | - | - |
| 1787997172 | 19.44° C | - | 1019.5 hPa | 0 mm | - | - | - |
| 1787997167 | 19.44° C | - | 1019.5 hPa | 0 mm | - | - | - |
* Rain since midnight (hover to see other rain measurements)
** Current wind speed in m/s (hover to see current wind gust speed)